Alexandria, Egypt

8:36 AM EET on February 11, 2016 (GMT +0200)
Alexandria International

Weather History for HEAX - November, 2012

Change the Weather History Date:

Thursday, November 8, 2012

  Actual Average Record
Temperature  
Mean Temperature 71 °F -  
Max Temperature 80 °F 70 °F 83 °F (2014)
Min Temperature 62 °F 55 °F 53 °F (1999)
Cooling Degree Days 6    
Growing Degree Days 21 (Base 50)    
Moisture  
Dew Point 66 °F    
Average Humidity 81    
Maximum Humidity 100    
Minimum Humidity 59    
Precipitation  
Precipitation 0.00 in 0.05 in - ()
Sea Level Pressure  
Sea Level Pressure 29.94 in    
Wind  
Wind Speed 5 mph ()    
Max Wind Speed 13 mph    
Max Gust Speed -    
Visibility 5.6 miles    
Events      
Averages and records for this station are not official NWS values.
T = Trace of Precipitation, MM = Missing Value Source: Averaged Metar Reports

Daily Weather History Graph

Daily Weather History Graph

Search for Another Location

Airport or City:

Trip Planner

Search our weather history database for the weather conditions in past years. The results will help you decide how hot, cold, wet, or windy it might be!

Date:

Astronomy

Nov. 08, 2012 Rise Set
Actual Time 6:21 AM EET 5:05 PM EET
Civil Twilight 5:56 AM EET 5:31 PM EET
Nautical Twilight 5:27 AM EET 6:00 PM EET
Astronomical Twilight 4:58 AM EET 6:28 PM EET
Moon 12:19 AM EET (11/8) 1:15 PM EET (11/8)
Length of Visible Light 11h 35m
Length of Day
10h 44m
Waning Crescent, 36% of the Moon is Illuminated
Nov 8
Waning Crescent
Nov 14
New
Nov 20
First Quarter
Nov 28
Full
Dec 6
Last Quarter

Hourly Weather History & Observations

Time (EET) Temp. Heat Index Dew Point Humidity Pressure Visibility Wind Dir Wind Speed Gust Speed Precip Events Conditions
12:00 AM 68.0 °F - 64.4 °F 88% 30.01 in 6.2 mi South 4.6 mph - N/A   Scattered Clouds
1:00 AM 73.4 °F - 66.2 °F 78% 30.04 in 6.2 mi NNW 3.5 mph - N/A   Partly Cloudy
2:00 AM 66 °F - 63 °F 86% 30.01 in 6 mi Calm Calm - -   Partly Cloudy
2:00 AM 66.2 °F - 62.6 °F 88% 30.01 in 6.2 mi Calm Calm - N/A   Scattered Clouds
3:00 AM 66.2 °F - 64.4 °F 94% 29.98 in 3.7 mi Calm Calm - N/A   Scattered Clouds
4:00 AM 64.4 °F - 62.6 °F 94% 29.98 in 3.7 mi SSW 3.5 mph - N/A   Scattered Clouds
5:00 AM 64.4 °F - 62.6 °F 94% 29.98 in 3.7 mi Calm Calm - N/A   Scattered Clouds
6:00 AM 62.6 °F - 60.8 °F 94% 29.98 in 3.7 mi Calm Calm - N/A   Scattered Clouds
7:00 AM 62.6 °F - 62.6 °F 100% 30.01 in 3.7 mi Calm Calm - N/A   Scattered Clouds
8:00 AM 69 °F - 66 °F 87% 30.00 in 4 mi South 4.6 mph - -   Mist
8:00 AM 69.8 °F - 66.2 °F 88% 30.01 in 3.7 mi South 4.6 mph - N/A   Scattered Clouds
9:00 AM 75.2 °F - 68.0 °F 78% 29.98 in 6.2 mi SW 8.1 mph - N/A   Scattered Clouds
10:00 AM 77.0 °F - 69.8 °F 78% 29.95 in 6.2 mi West 9.2 mph - N/A   Scattered Clouds
11:00 AM 78.8 °F - 68.0 °F 69% 29.95 in 6.2 mi West 9.2 mph - N/A   Scattered Clouds
12:00 PM 78.8 °F - 68.0 °F 69% 29.92 in 6.2 mi West 11.5 mph - N/A   Scattered Clouds
1:00 PM 78.8 °F - 68.0 °F 69% 29.92 in 6.2 mi WNW 11.5 mph - N/A   Scattered Clouds
2:00 PM 80 °F - 68 °F 59% 29.90 in 6 mi WNW 10.4 mph - -   Mostly Cloudy
2:00 PM 80.6 °F 83.2 °F 68.0 °F 65% 29.89 in 6.2 mi WNW 10.4 mph - N/A   Scattered Clouds
3:00 PM 78.8 °F - 68.0 °F 69% 29.86 in 6.2 mi WNW 11.5 mph - N/A   Scattered Clouds
4:00 PM 77.0 °F - 68.0 °F 74% 29.89 in 6.2 mi NW 6.9 mph - N/A   Scattered Clouds
5:00 PM 75.2 °F - 68.0 °F 78% 29.89 in 6.2 mi WNW 8.1 mph - N/A   Scattered Clouds
6:00 PM 75.2 °F - 68.0 °F 78% 29.89 in 6.2 mi NW 8.1 mph - N/A   Scattered Clouds
7:00 PM 75.2 °F - 68.0 °F 78% 29.89 in 6.2 mi WNW 6.9 mph - N/A   Scattered Clouds
8:00 PM 73 °F - 67 °F 75% 29.91 in 6 mi NW 11.5 mph - -   Mostly Cloudy
8:00 PM 73.4 °F - 66.2 °F 78% 29.89 in 6.2 mi NW 11.5 mph - N/A   Scattered Clouds
9:00 PM 69.8 °F - 68.0 °F 94% 29.89 in 6.2 mi WNW 9.2 mph - N/A   Partly Cloudy
10:00 PM 69.8 °F - 66.2 °F 88% 29.89 in 6.2 mi WNW 9.2 mph - N/A   Scattered Clouds
11:00 PM 71.6 °F - 62.6 °F 73% 29.89 in 6.2 mi WNW 12.7 mph - N/A   Scattered Clouds